Weather History for Duluth Sky Harbor, MN

Change the Weather History Date:

Wednesday, February 13, 2013

  Actual Average Record
Temperature  
Mean Temperature 30 °F -  
Max Temperature 37 °F 26 °F 64 °F (1997)
Min Temperature 23 °F 5 °F -20 °F (1971)
Degree Days  
Heating Degree Days 35    
Moisture  
Dew Point 23 °F    
Average Humidity 76    
Maximum Humidity 87    
Minimum Humidity 65    
Precipitation  
Precipitation 0.00 in - - ()
Sea Level Pressure  
Sea Level Pressure 29.65 in    
Wind  
Wind Speed 10 mph (SSW)    
Max Wind Speed 15 mph    
Max Gust Speed -    
Visibility 10 miles    
Events      
Averages and records for this station are not official NWS values.
T = Trace of Precipitation, MM = Missing Value Source: NWS Daily Summary

Daily Weather History Graph

Daily Weather History Graph

Search for Another Location

Airport:

Trip Planner

Search our weather history database for the weather conditions in past years. The results will help you decide how hot, cold, wet, or windy it might be!

Date:

Astronomy

Feb. 13, 2013 Rise Set
Actual Time 7:14 AM CST 5:30 PM CST
Civil Twilight 6:43 AM CST 6:01 PM CST
Nautical Twilight 6:08 AM CST 6:37 PM CST
Astronomical Twilight 5:33 AM CST 7:12 PM CST
Moon 8:27 AM CST (2/13) 9:53 PM CST (2/13)
Length of Visible Light 11h 18m
Length of Day
10h 15m
Waxing Crescent, 14% of the Moon is Illuminated
Feb 13
Waxing Crescent
Feb 17
First Quarter
Feb 25
Full
Mar 4
Last Quarter
Mar 11
New

Hourly Weather History & Observations

Time (CST) Temp. Windchill Dew Point Humidity Pressure Visibility Wind Dir Wind Speed Gust Speed Precip Events Conditions
12:14 AM 28.4 °F 17.0 °F 19.4 °F 69% 29.71 in 10.0 mi SW 15.0 mph - N/A   Overcast
12:33 AM 28.4 °F 17.5 °F 21.2 °F 74% 29.71 in 10.0 mi SW 13.8 mph - N/A   Overcast
12:54 AM 28.4 °F 17.5 °F 19.4 °F 69% 29.70 in 10.0 mi SW 13.8 mph - N/A   Overcast
1:13 AM 26.6 °F 16.2 °F 19.4 °F 74% 29.70 in 10.0 mi SW 11.5 mph - N/A   Overcast
1:33 AM 26.6 °F 17.5 °F 19.4 °F 74% 29.71 in 10.0 mi SSW 9.2 mph - N/A   Overcast
1:53 AM 26.6 °F 16.8 °F 19.4 °F 74% 29.70 in 10.0 mi SW 10.4 mph - N/A   Overcast
2:13 AM 26.6 °F 16.2 °F 19.4 °F 74% 29.70 in 10.0 mi SW 11.5 mph - N/A   Overcast
2:34 AM 26.6 °F 18.2 °F 19.4 °F 74% 29.70 in 10.0 mi SSW 8.1 mph - N/A   Overcast
2:53 AM 26.6 °F 17.5 °F 19.4 °F 74% 29.70 in 10.0 mi SSW 9.2 mph - N/A   Overcast
3:13 AM 26.6 °F 16.8 °F 19.4 °F 74% 29.69 in 10.0 mi SSW 10.4 mph - N/A   Overcast
3:33 AM 26.6 °F 16.8 °F 19.4 °F 74% 29.69 in 10.0 mi SSW 10.4 mph - N/A   Overcast
3:53 AM 26.6 °F 16.2 °F 19.4 °F 74% 29.69 in 10.0 mi SSW 11.5 mph - N/A   Overcast
4:14 AM 26.6 °F 16.2 °F 19.4 °F 74% 29.69 in 10.0 mi SSW 11.5 mph - N/A   Overcast
4:33 AM 26.6 °F 16.2 °F 19.4 °F 74% 29.69 in 10.0 mi SSW 11.5 mph - N/A   Overcast
4:53 AM 26.6 °F 15.7 °F 19.4 °F 74% 29.68 in 10.0 mi SSW 12.7 mph - N/A   Overcast
5:14 AM 26.6 °F 16.8 °F 19.4 °F 74% 29.68 in 10.0 mi SSW 10.4 mph - N/A   Overcast
5:33 AM 26.6 °F 16.8 °F 19.4 °F 74% 29.67 in 10.0 mi SSW 10.4 mph - N/A   Overcast
5:53 AM 24.8 °F 14.6 °F 19.4 °F 80% 29.67 in 10.0 mi SSW 10.4 mph - N/A   Overcast
6:14 AM 24.8 °F 15.3 °F 19.4 °F 80% 29.67 in 10.0 mi SW 9.2 mph - N/A   Overcast
6:33 AM 24.8 °F 15.3 °F 19.4 °F 80% 29.67 in 10.0 mi SSW 9.2 mph - N/A   Mostly Cloudy
6:53 AM 23.0 °F 13.1 °F 17.6 °F 80% 29.66 in 10.0 mi SSW 9.2 mph - N/A   Scattered Clouds
7:14 AM 23.0 °F 13.9 °F 17.6 °F 80% 29.67 in 10.0 mi SSW 8.1 mph - N/A   Scattered Clouds
7:33 AM 23.0 °F 13.9 °F 17.6 °F 80% 29.67 in 10.0 mi SSW 8.1 mph - N/A   Scattered Clouds
7:53 AM 23.0 °F 12.4 °F 19.4 °F 86% 29.67 in 10.0 mi SSW 10.4 mph - N/A   Clear
8:13 AM 23.0 °F 13.1 °F 19.4 °F 86% 29.67 in 10.0 mi SSW 9.2 mph - N/A   Clear
8:33 AM 24.8 °F 14.6 °F 19.4 °F 80% 29.67 in 10.0 mi SW 10.4 mph - N/A   Clear
8:54 AM 24.8 °F 15.3 °F 19.4 °F 80% 29.66 in 10.0 mi SSW 9.2 mph - N/A   Clear
9:13 AM 24.8 °F 14.6 °F 19.4 °F 80% 29.66 in 10.0 mi SW 10.4 mph - N/A   Clear
9:33 AM 26.6 °F 18.2 °F 19.4 °F 74% 29.65 in 10.0 mi SSW 8.1 mph - N/A   Clear
9:54 AM 26.6 °F 17.5 °F 21.2 °F 80% 29.65 in 10.0 mi SSW 9.2 mph - N/A   Clear
10:13 AM 28.4 °F 19.7 °F 21.2 °F 74% 29.65 in 10.0 mi SW 9.2 mph - N/A   Clear
10:33 AM 28.4 °F 19.7 °F 21.2 °F 74% 29.64 in 10.0 mi SW 9.2 mph - N/A   Clear
10:54 AM 30.2 °F 22.6 °F 23.0 °F 75% 29.65 in 10.0 mi SW 8.1 mph - N/A   Clear
11:13 AM 30.2 °F 23.4 °F 23.0 °F 75% 29.65 in 10.0 mi SSW 6.9 mph - N/A   Clear
11:33 AM 32.0 °F 24.8 °F 24.8 °F 75% 29.64 in 10.0 mi SSW 8.1 mph - N/A   Clear
11:54 AM 33.8 °F 27.7 °F 24.8 °F 70% 29.64 in 10.0 mi SW 6.9 mph - N/A   Clear
12:13 PM 33.8 °F 28.6 °F 24.8 °F 70% 29.63 in 10.0 mi SW 5.8 mph - N/A   Clear
12:33 PM 35.6 °F 29.9 °F 24.8 °F 65% 29.62 in 10.0 mi SSW 6.9 mph - N/A   Clear
12:54 PM 35.6 °F 29.9 °F 26.6 °F 70% 29.62 in 10.0 mi SSW 6.9 mph - N/A   Clear
1:13 PM 35.6 °F 29.9 °F 26.6 °F 70% 29.61 in 10.0 mi SSW 6.9 mph - N/A   Clear
1:33 PM 37.4 °F 32.8 °F 26.6 °F 65% 29.60 in 10.0 mi SSW 5.8 mph - N/A   Clear
1:54 PM 37.4 °F 32.1 °F 26.6 °F 65% 29.60 in 10.0 mi SSW 6.9 mph - N/A   Clear
2:13 PM 37.4 °F 34.9 °F 26.6 °F 65% 29.59 in 10.0 mi SSW 3.5 mph - N/A   Clear
2:33 PM 37.4 °F 32.8 °F 26.6 °F 65% 29.59 in 10.0 mi SW 5.8 mph - N/A   Clear
2:53 PM 37.4 °F 34.9 °F 26.6 °F 65% 29.59 in 10.0 mi SSW 3.5 mph - N/A   Scattered Clouds
3:13 PM 37.4 °F 34.9 °F 26.6 °F 65% 29.60 in 10.0 mi SSW 3.5 mph - N/A   Mostly Cloudy
3:34 PM 37.4 °F - 26.6 °F 65% 29.60 in 10.0 mi Calm Calm - N/A   Overcast
3:53 PM 37.4 °F - 28.4 °F 70% 29.60 in 10.0 mi Calm Calm - N/A   Overcast
4:13 PM 37.4 °F 34.9 °F 28.4 °F 70% 29.60 in 10.0 mi ENE 3.5 mph - N/A   Overcast
4:33 PM 33.8 °F 23.9 °F 30.2 °F 87% 29.61 in 10.0 mi NNE 15.0 mph - N/A   Overcast
4:53 PM 33.8 °F 24.8 °F 28.4 °F 81% 29.62 in 10.0 mi NE 12.7 mph - N/A   Overcast
5:13 PM 33.8 °F 25.3 °F 28.4 °F 81% 29.62 in 10.0 mi NE 11.5 mph - N/A   Overcast
5:33 PM 33.8 °F 25.8 °F 28.4 °F 81% 29.63 in 10.0 mi NE 10.4 mph - N/A   Overcast
5:54 PM 33.8 °F 26.4 °F 28.4 °F 81% 29.63 in 10.0 mi NE 9.2 mph - N/A   Overcast
6:13 PM 33.8 °F 25.8 °F 28.4 °F 81% 29.63 in 10.0 mi NE 10.4 mph - N/A   Overcast
6:33 PM 33.8 °F 25.8 °F 28.4 °F 81% 29.64 in 10.0 mi NE 10.4 mph - N/A   Overcast
6:54 PM 33.8 °F 25.8 °F 28.4 °F 81% 29.65 in 10.0 mi ENE 10.4 mph - N/A   Overcast
7:13 PM 33.8 °F 27.0 °F 26.6 °F 75% 29.65 in 10.0 mi ENE 8.1 mph - N/A   Overcast
7:33 PM 33.8 °F 27.7 °F 26.6 °F 75% 29.66 in 10.0 mi ENE 6.9 mph - N/A   Overcast
7:54 PM 32.0 °F 24.8 °F 26.6 °F 80% 29.65 in 10.0 mi ENE 8.1 mph - N/A   Overcast
8:13 PM 33.8 °F 27.0 °F 26.6 °F 75% 29.65 in 10.0 mi ENE 8.1 mph - N/A   Overcast
8:33 PM 32.0 °F 24.8 °F 26.6 °F 80% 29.66 in 10.0 mi NE 8.1 mph - N/A   Overcast
8:54 PM 32.0 °F 24.2 °F 26.6 °F 80% 29.66 in 10.0 mi NE 9.2 mph - N/A   Overcast
9:13 PM 32.0 °F 25.6 °F 26.6 °F 80% 29.66 in 10.0 mi NE 6.9 mph - N/A   Overcast
9:33 PM 32.0 °F 25.6 °F 26.6 °F 80% 29.65 in 10.0 mi ENE 6.9 mph - N/A   Overcast
9:54 PM 32.0 °F 24.8 °F 26.6 °F 80% 29.65 in 10.0 mi NE 8.1 mph - N/A   Overcast
10:13 PM 32.0 °F 24.2 °F 26.6 °F 80% 29.65 in 10.0 mi NE 9.2 mph - N/A   Overcast
10:33 PM 32.0 °F 26.4 °F 26.6 °F 80% 29.65 in 10.0 mi NE 5.8 mph - N/A   Overcast
10:54 PM 32.0 °F 25.6 °F 26.6 °F 80% 29.66 in 10.0 mi NE 6.9 mph - N/A   Overcast
11:14 PM 32.0 °F 25.6 °F 26.6 °F 80% 29.66 in 10.0 mi NE 6.9 mph - N/A   Overcast
11:33 PM 32.0 °F 26.4 °F 26.6 °F 80% 29.66 in 10.0 mi East 5.8 mph - N/A   Overcast
11:54 PM 30.2 °F 25.4 °F 26.6 °F 86% 29.67 in 10.0 mi East 4.6 mph - N/A   Overcast